TimeEDT,TemperatureF,Dew PointF,Humidity,Sea Level PressureIn,VisibilityMPH,Wind Direction,Wind SpeedMPH,Gust SpeedMPH,PrecipitationIn,Events,Conditions,WindDirDegrees,DateUTC
12:15 AM,73.4,69.8,88,30.06,10.0,WSW,5.8,-,N/A,,Mostly Cloudy,250,2013-07-09 04:15:00
12:42 AM,71.6,69.8,94,30.05,10.0,WSW,4.6,-,N/A,,Partly Cloudy,250,2013-07-09 04:42:00
12:53 AM,72.0,70.0,93,30.05,10.0,SW,3.5,-,N/A,,Mostly Cloudy,230,2013-07-09 04:53:00
1:03 AM,71.6,69.8,94,30.04,10.0,SW,4.6,-,N/A,,Partly Cloudy,230,2013-07-09 05:03:00
1:53 AM,71.1,69.1,93,30.04,9.0,SW,4.6,-,N/A,,Clear,220,2013-07-09 05:53:00
2:16 AM,71.6,69.8,94,30.04,9.0,SW,6.9,-,N/A,,Scattered Clouds,220,2013-07-09 06:16:00
2:24 AM,71.6,69.8,94,30.05,8.0,SW,5.8,-,N/A,,Mostly Cloudy,230,2013-07-09 06:24:00
2:53 AM,73.0,71.1,93,30.04,8.0,SW,6.9,-,N/A,,Overcast,230,2013-07-09 06:53:00
3:19 AM,71.6,69.8,94,30.03,10.0,WSW,5.8,-,N/A,,Scattered Clouds,250,2013-07-09 07:19:00
3:53 AM,72.0,70.0,93,30.03,10.0,West,5.8,-,N/A,,Clear,270,2013-07-09 07:53:00
4:02 AM,71.6,69.8,94,30.03,10.0,West,5.8,-,N/A,,Partly Cloudy,280,2013-07-09 08:02:00
4:24 AM,71.6,69.8,94,30.03,10.0,Calm,Calm,-,N/A,,Mostly Cloudy,0,2013-07-09 08:24:00
4:53 AM,71.1,70.0,96,30.04,8.0,WSW,6.9,-,N/A,,Overcast,240,2013-07-09 08:53:00
5:53 AM,71.1,69.1,93,30.06,5.0,WNW,3.5,-,N/A,,Overcast,290,2013-07-09 09:53:00
6:53 AM,71.1,69.1,93,30.08,5.0,WSW,3.5,-,N/A,,Overcast,250,2013-07-09 10:53:00
7:53 AM,72.0,70.0,93,30.08,6.0,Calm,Calm,-,N/A,,Overcast,0,2013-07-09 11:53:00
8:01 AM,73.4,69.8,88,30.08,7.0,NNW,3.5,-,N/A,,Overcast,340,2013-07-09 12:01:00
8:53 AM,75.9,71.1,85,30.08,8.0,North,4.6,-,N/A,,Overcast,10,2013-07-09 12:53:00
9:40 AM,77.0,69.8,78,30.08,10.0,Calm,Calm,-,N/A,,Mostly Cloudy,0,2013-07-09 13:40:00
9:53 AM,77.0,71.1,82,30.08,10.0,SSE,3.5,-,N/A,,Overcast,150,2013-07-09 13:53:00
10:46 AM,75.2,69.8,83,30.09,9.0,ENE,3.5,-,N/A,,Overcast,70,2013-07-09 14:46:00
10:53 AM,75.0,70.0,84,30.09,9.0,East,3.5,-,N/A,,Overcast,90,2013-07-09 14:53:00
11:53 AM,77.0,71.1,82,30.09,10.0,South,3.5,-,N/A,,Overcast,170,2013-07-09 15:53:00
12:23 PM,78.8,71.6,78,30.09,10.0,NW,6.9,-,N/A,,Mostly Cloudy,310,2013-07-09 16:23:00
12:39 PM,80.6,71.6,74,30.08,10.0,Variable,3.5,-,N/A,,Scattered Clouds,0,2013-07-09 16:39:00
12:53 PM,79.0,70.0,74,30.09,10.0,Calm,Calm,-,N/A,,Mostly Cloudy,0,2013-07-09 16:53:00
1:01 PM,80.6,71.6,74,30.08,10.0,North,4.6,-,N/A,,Mostly Cloudy,350,2013-07-09 17:01:00
1:53 PM,77.0,70.0,79,30.08,10.0,Calm,Calm,-,N/A,,Overcast,0,2013-07-09 17:53:00
2:50 PM,80.6,69.8,70,30.09,10.0,Variable,5.8,-,N/A,,Scattered Clouds,0,2013-07-09 18:50:00
2:53 PM,81.0,70.0,69,30.09,10.0,West,4.6,-,N/A,,Mostly Cloudy,270,2013-07-09 18:53:00
3:00 PM,80.6,69.8,70,30.09,10.0,West,3.5,-,N/A,,Scattered Clouds,260,2013-07-09 19:00:00
3:30 PM,80.6,71.6,74,30.09,10.0,East,6.9,-,N/A,,Mostly Cloudy,80,2013-07-09 19:30:00
3:53 PM,77.0,70.0,79,30.08,10.0,East,6.9,-,N/A,,Mostly Cloudy,80,2013-07-09 19:53:00
4:08 PM,78.8,69.8,74,30.08,10.0,East,6.9,-,N/A,,Scattered Clouds,80,2013-07-09 20:08:00
4:38 PM,75.2,69.8,83,30.07,9.0,East,4.6,-,N/A,,Mostly Cloudy,80,2013-07-09 20:38:00
4:53 PM,75.9,70.0,82,30.06,9.0,ENE,8.1,-,N/A,,Scattered Clouds,60,2013-07-09 20:53:00
5:53 PM,73.9,70.0,87,30.06,9.0,Calm,Calm,-,0.00,,Mostly Cloudy,0,2013-07-09 21:53:00
6:53 PM,75.0,70.0,84,30.06,7.0,South,5.8,-,0.00,,Partly Cloudy,190,2013-07-09 22:53:00
7:17 PM,73.4,69.8,88,30.06,6.0,South,6.9,-,N/A,,Mostly Cloudy,190,2013-07-09 23:17:00
7:53 PM,73.0,70.0,90,30.06,5.0,South,3.5,-,N/A,,Scattered Clouds,190,2013-07-09 23:53:00
8:00 PM,73.4,69.8,88,30.06,5.0,Calm,Calm,-,N/A,,Mostly Cloudy,0,2013-07-10 00:00:00
8:53 PM,73.0,71.1,93,30.07,7.0,Calm,Calm,-,N/A,,Overcast,0,2013-07-10 00:53:00
9:04 PM,73.4,69.8,88,30.08,6.0,ENE,3.5,-,N/A,,Overcast,60,2013-07-10 01:04:00
9:53 PM,73.0,71.1,93,30.08,7.0,Calm,Calm,-,N/A,,Overcast,0,2013-07-10 01:53:00
10:53 PM,73.0,71.1,93,30.07,6.0,Calm,Calm,-,N/A,,Overcast,0,2013-07-10 02:53:00
11:53 PM,73.0,71.1,93,30.07,4.0,Calm,Calm,-,N/A,,Overcast,0,2013-07-10 03:53:00